Location: Anjeux
(47.8815°N, 6.2076°E)
Time: 11:15:48
(UTC+00:00)

AO-27 - Pass Details

Date: 09 December 2021
Orbit: 784 x 798 km, 98.9° (Epoch: 23 January)

Event Time Altitude Azimuth Distance (km) Brightness Sun altitude
Rises 18:44:46 0° 188° (S) 3,287 11.0 -29.5°
Reaches altitude 10° 18:47:16 10° 197° (SSW) 2,363 10.3 -29.9°
Maximum altitude 18:52:03 36° 263° (W) 1,253 9.1 -30.7°
Drops below altitude 10° 18:56:52 10° 330° (NNW) 2,382 10.4 -31.5°
Sets 18:59:24 0° 339° (NNW) 3,316 11.2 -31.9°
